This demonstration page uses our WeatherBlox Daily Observations layout. Learn more.

Left ArrowRight Arrow

36.17497, -115.13722

Hourly Observations for December 1, 2022

Temp ( °F °C ) Dew Point ( °F °C ) Humidity (%) Winds ( mph kmh ) Pressure ( in mb ) Visibility ( mi km ) Precip ( " mm )
12:53 am 00:53 Clear 42 5.6 18 -7.8 37 37 Calm 29.99 1016 10 16 0.00 0.00
1:53 am 01:53 Clear 39 3.9 17 -8.3 40 40 WNW 5 7 29.99 1016 10 16 0.00 0.00
2:53 am 02:53 Clear 38 3.3 19 -7.2 46 46 WNW 3 6 29.97 1015 10 16 0.00 0.00
3:53 am 03:53 Clear 38 3.3 20 -6.7 48 48 W 3 6 29.97 1015 10 16 0.00 0.00
4:53 am 04:53 Clear 37 2.8 19 -7.2 48 48 Calm 29.97 1015 10 16 0.00 0.00
5:53 am 05:53 Clear 37 2.8 20 -6.7 50 50 Calm 29.98 1015 10 16 0.00 0.00
6:53 am 06:53 Sunny 38 3.3 21 -6.1 50 50 Calm 29.99 1016 10 16 0.00 0.00
7:53 am 07:53 Sunny 40 4.4 21 -6.1 46 46 Calm 30.00 1016 10 16 0.00 0.00
8:53 am 08:53 Sunny 46 7.8 20 -6.7 35 35 ESE 5 7 29.99 1016 10 16 0.00 0.00
9:53 am 09:53 Sunny 48 8.9 23 -5 37 37 SE 6 9 29.99 1016 10 16 0.00 0.00
10:53 am 10:53 Sunny 54 12.2 28 -2.2 37 37 SE 13 20 29.97 1015 10 16 0.00 0.00
11:53 am 11:53 Sunny 58 14.4 31 -0.6 36 36 ESE 15 24 29.93 1013 10 16 0.00 0.00
12:53 pm 12:53 Sunny 59 15 31 -0.6 34 34 ESE 14 22 29.89 1012 10 16 0.00 0.00
1:53 pm 13:53 Sunny 62 16.7 27 -2.8 26 26 SE 24 39 29.87 1012 10 16 0.00 0.00
2:53 pm 14:53 Partly Cloudy 63 17.2 25 -3.9 23 23 S 17 28 29.85 1011 10 16 0.00 0.00
3:53 pm 15:53 Sunny 60 15.6 27 -2.8 28 28 S 16 26 29.87 1011 10 16 0.00 0.00
5:53 pm 17:53 Mostly Clear 58 14.4 27 -2.8 30 30 S 18 30 29.87 1012 10 16 0.00 0.00
6:53 pm 18:53 Clear 58 14.4 28 -2.2 32 32 S 13 20 29.88 1012 10 16 0.00 0.00
7:53 pm 19:53 Clear 57 13.9 29 -1.7 34 34 SSE 10 17 29.88 1012 10 16 0.00 0.00
8:53 pm 20:53 Clear 57 13.9 31 -0.6 37 37 SSE 14 22 29.88 1012 10 16 0.00 0.00
9:53 pm 21:53 Clear 57 13.9 31 -0.6 37 37 S 18 30 29.88 1012 10 16 0.00 0.00
10:53 pm 22:53 Clear 56 13.3 32 0 40 40 SSE 14 22 29.87 1012 10 16 0.00 0.00
11:53 pm 23:53 Mostly Clear 54 12.2 35 1.7 49 49 SSE 8 13 29.86 1011 10 16 0.00 0.00

Powered by AerisWeather